Location: Peebles
(55.6412°N, 3.1714°W)
Time: 08:45:49
(UTC+01:00)

SPACEBEE-17 - Visible Passes

Search period start: 26 June 2022 00:00
Search period end: 06 July 2022 00:00
Orbit: 503 x 507 km, 97.5° (Epoch: 25 June)

Date Brightness Start Highest point End Pass type
(mag) Time Alt. Az. Time Alt. Az. Time Alt. Az.
26 Jun ? 23:03:00 10° S 23:06:41 60° WSW 23:10:23 10° NNW visible
28 Jun ? 00:21:39 10° WSW 00:23:09 12° W 00:24:38 10° WNW visible
29 Jun ? 00:02:25 10° SW 00:04:57 17° W 00:07:30 10° NW visible
29 Jun ? 23:43:39 10° SSW 23:46:46 25° W 23:49:53 10° NW visible
30 Jun ? 23:25:08 10° SSW 23:28:36 36° W 23:32:04 10° NNW visible
01 Jul ? 23:06:48 10° S 23:10:27 55° W 23:14:07 10° NNW visible
03 Jul ? 00:25:41 10° WSW 00:26:47 11° W 00:27:54 10° WNW visible
04 Jul ? 00:06:02 10° SW 00:08:25 16° W 00:10:49 10° NW visible
04 Jul ? 23:47:03 10° SSW 23:50:05 23° W 23:53:07 10° NW visible
05 Jul ? 23:28:21 10° SSW 23:31:45 34° W 23:35:11 10° NNW visible
